ATLAS 5 CENTAUR DEB, 46668

Orbit data source: Space-Track

ATLAS 5 CENTAUR DEB, 46668 is space debris in HEO originally from a launch on Wed, 17 Oct 2018 UTC launched from the Air Force Eastern Test Range (AFETR). Debris objects in space refer to the collection of defunct objects orbiting the Earth. Examples of debris include non-operational satellites, rocket bodies, and fragments generated from explosions, collisions, or faulty payload assembly.

Loading next visibility...
Identifier
46668, 2018-079CW
Orbit
HEO
Country
Flag of USUS
Related business
Flag of USUnited Launch Alliance/Lockheed Martin (US)
Manufacturer
ULA Decatur
Mission
Spacecraft
Bus & Motor
Unknown
Mass
Unknown
Launch date (UTC)
2018-10-17 (7 years ago)
Launch vehicle
Unknown
Launch site
Air Force Eastern Test Range (AFETR)
Object type
Payload
Rocket body
Debris
Shape & HBR
Unknown shape, 1.1 m
Radar Cross Section
RCS unknown

Expand to show TLE details & history
Last TLE update: 1 day ago

TLE from 1 day ago
0 ATLAS 5 CENTAUR DEB
1 46668U 18079CW  25300.76979039 -.00000098  00000-0  00000-0 0  9993
2 46668  12.9991  53.6428 4651304 281.5443  31.4834  1.83703050 33906
Epoch: 2025-10-27T18:28Z
TLE epoch observation values (Epoch: 2025-10-27T18:28:29.889Z)
Latitude
-0°
Longitude
100.08853°
Altitude
13,803.172 km
Speed
5.035 km/s
True Right ascension
03h 34m 19s
True Declination
0° 00' 00"
Sunlit
Object was in daylight at epoch
Visualization orbit readout
Latitude
Unknown
Longitude
Unknown
Altitude
Unknown
Speed
Unknown
Apparent Right ascension
Unknown
Apparent Declination
Unknown
Sunlit
N/A
Visualization observer readout
Local Sidereal Time
14:14:36
Azimuth
Unknown
Elevation
Unknown
Doppler factor
Unknown
Orbital elements
Apogee altitude
34,885.383 km
Perigee altitude
8,685.78 km
Semi-major axis
28,163.718 km
Eccentricity
0.46513
Inclination
12.9991°
RAAN
53.6428°
Arg. of periapsis
281.5443°
True anomaly
78.65888°
Mean anomaly
31.4834°
Eccentric anomaly
52.67601°
Mean motion
0.45921 °/min
Orbital period
783.96 mins
BSTAR
0
Loading maneuver chart data...
Computing Atmospheric mass density...

Documentation

Showing up to 5 results
|